KA6ETS Weather Reports


time (UTC)temp
F
wind
direction
speed
knots
gust
knots
rain 1hr
in
rain 24hr
in
rain mn
in
humidity
%
barometer
mb
20260509090214 69 171 6.1 11.3 0.00 0.00 0.00 89 1005.4
20260509085710 70 111 6.1 10.4 0.00 0.00 0.00 88 1005.7
20260509085210 70 124 6.1 10.4 0.00 0.00 0.00 88 1006.1
20260509084710 70 109 6.1 9.6 0.00 0.00 0.00 88 1006.2
20260509084701 70 123 5.2 9.6 0.00 0.00 0.00 87 1006.6
20260509083712 70 132 4.3 9.6 0.00 0.00 0.00 87 1006.9
20260509083210 70 144 3.5 7.8 0.00 0.00 0.00 87 1007.3
20260509082711 70 171 3.5 7.8 0.00 0.00 0.00 87 1007.6
20260509082211 70 156 3.5 7.8 0.00 0.00 0.00 87 1007.6
20260509081710 70 130 3.5 7.0 0.00 0.00 0.00 87 1007.9
20260509081206 71 126 2.6 6.1 0.00 0.00 0.00 86 1008.1
20260509080938 71 150 2.6 6.1 0.00 0.00 0.00 86 1008.4
20260509080206 71 134 2.6 6.1 0.00 0.00 0.00 86 1008.5
20260509075707 71 126 1.7 6.1 0.00 0.00 0.00 86 1008.5
20260509075206 71 150 1.7 4.3 0.00 0.00 0.00 86 1008.7
20260509074706 71 159 1.7 4.3 0.00 0.00 0.00 86 1008.8
20260509074206 71 151 1.7 4.3 0.00 0.00 0.00 86 1008.8
20260509073707 71 173 1.7 4.3 0.00 0.00 0.00 86 1008.9
20260509073206 70 196 0.9 3.5 0.00 0.00 0.00 86 1009.1
20260509072706 70 212 1.7 5.2 0.00 0.00 0.00 86 1009.2
20260509072207 70 213 1.7 5.2 0.00 0.00 0.00 86 1009.4
20260509071929 70 229 1.7 4.3 0.00 0.00 0.00 86 1009.5
20260509071206 70 223 1.7 4.3 0.00 0.00 0.00 86 1009.3
20260509070705 70 198 1.7 4.3 0.00 0.00 0.00 86 1009.1
20260509070206 70 200 2.6 4.3 0.00 0.00 0.00 85 1008.8
20260509065706 70 177 2.6 4.3 0.00 0.00 0.00 85 1008.3
20260509065206 70 160 1.7 4.3 0.00 0.00 0.00 85 1008.2
20260509064705 70 168 1.7 4.3 0.00 0.00 0.00 85 1008.5
20260509064159 70 172 1.7 4.3 0.00 0.00 0.00 84 1008.5
20260509063700 71 198 1.7 5.2 0.00 0.00 0.00 84 1008.7
20260509063424 71 177 2.6 5.2 0.00 0.00 0.00 84 1008.6
20260509062657 71 163 1.7 5.2 0.00 0.00 0.00 84 1008.6
20260509062158 71 167 1.7 4.3 0.00 0.00 0.00 84 1009.0
20260509061656 71 165 0.9 3.5 0.00 0.00 0.00 83 1009.0
20260509061424 71 162 0.9 2.6 0.00 0.00 0.00 83 1009.3
20260509060656 71 156 0.9 4.3 0.00 0.00 0.00 83 1009.3
20260509060414 71 148 0.9 2.6 0.00 0.00 0.00 83 1009.2
20260509060404 71 155 0.9 4.3 0.00 0.00 0.00 83 1009.3
20260509055155 71 298 0.0 0.0 0.00 0.00 0.00 83 1009.7
20260509054652 71 298 0.0 0.0 0.00 0.00 0.00 83 1009.8
20260509054152 71 298 0.9 2.6 0.00 0.00 0.00 83 1009.9
20260509053915 72 298 0.9 2.6 0.00 0.00 0.00 82 1009.9
20260509053152 72 290 0.9 3.5 0.00 0.00 0.00 82 1009.6
20260509052652 72 165 0.9 3.5 0.00 0.00 0.00 82 1009.1
20260509052153 72 134 0.9 6.1 0.00 0.00 0.00 81 1008.9
20260509051651 72 157 0.9 6.1 0.00 0.00 0.00 81 1008.8
20260509051412 72 158 2.6 7.0 0.00 0.00 0.00 81 1008.7
20260509050911 72 182 2.6 7.0 0.00 0.00 0.00 81 1008.4
20260509050134 72 111 0.9 5.2 0.00 0.00 0.00 80 1008.5
20260509045627 73 198 1.7 5.2 0.00 0.00 0.00 80 1008.8
20260509045121 73 169 2.6 7.8 0.00 0.00 0.00 80 1008.6
20260509044835 73 147 2.6 7.8 0.00 0.00 0.00 80 1008.2
20260509044109 73 148 2.6 6.1 0.00 0.00 0.00 80 1008.4
20260509043604 73 148 1.7 6.1 0.00 0.00 0.00 79 1008.6
20260509043058 73 134 1.7 3.5 0.00 0.00 0.00 79 1008.7
20260509042552 73 128 0.9 3.5 0.00 0.00 0.00 79 1008.8
20260509042045 73 130 0.0 0.0 0.00 0.00 0.00 79 1009.1
20260509041539 73 130 0.0 0.0 0.00 0.00 0.00 79 1009.3
20260509041034 73 130 0.0 0.9 0.00 0.00 0.00 79 1009.4
20260509040527 73 129 0.0 0.9 0.00 0.00 0.00 79 1009.3
20260509040022 73 130 0.0 0.9 0.00 0.00 0.00 79 1009.3
20260509035515 73 130 0.9 3.5 0.00 0.00 0.00 79 1009.2
20260509035010 73 130 0.9 3.5 0.00 0.00 0.00 79 1009.1
20260509034503 73 123 0.9 2.6 0.00 0.00 0.00 79 1008.9
20260509033958 73 124 0.9 3.5 0.00 0.00 0.00 79 1008.7
20260509033451 73 125 0.9 3.5 0.00 0.00 0.00 79 1008.6
20260509032945 73 117 0.9 1.7 0.00 0.00 0.00 79 1008.6
20260509032438 73 125 0.9 2.6 0.00 0.00 0.00 79 1008.7
20260509031933 73 124 0.9 2.6 0.00 0.00 0.00 79 1008.7
20260509031427 73 133 0.9 3.5 0.00 0.00 0.00 78 1008.6
20260509031139 73 137 1.7 4.3 0.00 0.00 0.00 78 1008.5
20260509030415 73 149 1.7 4.3 0.00 0.00 0.00 78 1008.3
20260509025911 72 152 0.9 3.5 0.00 0.00 0.00 78 1008.4
20260509025403 72 139 0.9 3.5 0.00 0.00 0.00 77 1008.5
20260509024857 72 128 1.7 3.5 0.00 0.00 0.00 77 1008.2
20260509024611 72 140 1.7 3.5 0.00 0.00 0.00 77 1008.0
20260509023847 72 138 1.7 3.5 0.00 0.00 0.00 77 1008.1
20260509023557 73 124 1.7 3.5 0.00 0.00 0.00 76 1007.9
20260509023055 73 132 1.7 3.5 0.00 0.00 0.00 76 1007.8
20260509022329 73 133 1.7 5.2 0.00 0.00 0.00 76 1007.8
20260509021821 73 126 2.6 5.2 0.00 0.00 0.00 76 1007.7
20260509021315 73 145 2.6 4.3 0.00 0.00 0.00 76 1007.7
20260509021028 73 120 3.5 6.1 0.00 0.00 0.00 76 1007.7
20260509020749 73 121 3.5 6.1 0.00 0.00 0.00 76 1007.7
20260509015757 73 125 2.6 6.1 0.00 0.00 0.00 75 1007.7
20260509015252 73 135 2.6 6.1 0.00 0.00 0.00 76 1007.9
20260509014745 73 136 2.6 6.1 0.00 0.00 0.00 76 1007.8
20260509014239 73 121 2.6 5.2 0.00 0.00 0.00 75 1007.7
20260509013733 73 127 1.7 4.3 0.00 0.00 0.00 75 1007.8
20260509013227 73 129 1.7 4.3 0.00 0.00 0.00 75 1007.8
20260509012721 73 124 1.7 4.3 0.00 0.00 0.00 75 1007.8
20260509012215 73 133 1.7 4.3 0.00 0.00 0.00 75 1007.8
20260509011709 73 139 0.9 4.3 0.00 0.00 0.00 75 1007.7
20260509011203 73 126 1.7 3.5 0.00 0.00 0.00 75 1007.6
20260509010703 73 138 1.7 3.5 0.00 0.00 0.00 75 1007.2
20260509010201 73 138 1.7 4.3 0.00 0.00 0.00 75 1007.2
20260509005924 73 137 2.6 4.3 0.00 0.00 0.00 74 1007.1
20260509005201 73 118 2.6 6.1 0.00 0.00 0.00 74 1007.2
20260509004702 73 141 2.6 7.8 0.00 0.00 0.00 74 1007.1
20260509004201 74 138 3.5 7.8 0.00 0.00 0.00 74 1007.1
20260509003701 74 125 2.6 6.1 0.00 0.00 0.00 74 1007.1
20260509003203 74 136 2.6 7.0 0.00 0.00 0.00 74 1007.2
20260509002703 74 121 3.5 7.0 0.00 0.00 0.00 73 1007.3
20260509002201 74 130 2.6 6.1 0.00 0.00 0.00 73 1007.3
20260509001925 74 135 2.6 7.0 0.00 0.00 0.00 73 1007.3
20260509001200 74 132 3.5 7.0 0.00 0.00 0.00 73 1007.3
20260509001144 74 134 3.5 7.0 0.00 0.00 0.00 73 1007.4
20260509000157 74 121 2.6 7.0 0.00 0.00 0.00 72 1007.4
20260508235657 74 128 2.6 7.0 0.00 0.00 0.00 72 1007.6
20260508235155 74 134 3.5 7.8 0.00 0.00 0.00 71 1007.6
20260508235146 74 140 3.5 7.8 0.00 0.00 0.00 71 1007.6
20260508234154 74 119 3.5 6.1 0.00 0.00 0.00 71 1007.6
20260508233655 74 136 2.6 6.1 0.00 0.00 0.00 70 1007.7
20260508233425 75 127 2.6 7.0 0.00 0.00 0.00 70 1007.7
20260508232653 75 133 2.6 7.0 0.00 0.00 0.00 69 1007.6
20260508232153 75 120 2.6 6.1 0.00 0.00 0.00 69 1007.6
20260508231653 75 121 2.6 7.0 0.00 0.00 0.00 68 1007.6
20260508231416 75 116 1.7 7.0 0.00 0.00 0.00 68 1007.6
20260508230654 76 131 1.7 5.2 0.00 0.00 0.00 67 1007.6
20260508230149 76 140 2.6 7.8 0.00 0.00 0.00 68 1007.7
20260508225649 76 126 3.5 7.8 0.00 0.00 0.00 67 1007.7
20260508225149 76 140 2.6 7.0 0.00 0.00 0.00 68 1007.7
20260508224651 75 146 1.7 5.2 0.00 0.00 0.00 68 1007.7
20260508224149 75 165 2.6 7.0 0.00 0.00 0.00 68 1007.7
20260508223649 74 145 3.5 7.8 0.00 0.00 0.00 68 1007.7
20260508223149 75 138 4.3 7.8 0.00 0.00 0.00 67 1007.8
20260508222649 75 142 4.3 8.7 0.00 0.00 0.00 66 1007.8
20260508222149 76 161 5.2 10.4 0.00 0.00 0.00 67 1007.8
20260508221647 76 125 5.2 10.4 0.00 0.00 0.00 66 1007.8
20260508221146 76 136 5.2 10.4 0.00 0.00 0.00 66 1007.9
20260508220645 76 164 4.3 9.6 0.00 0.00 0.00 68 1007.9
20260508220342 75 152 5.2 8.7 0.00 0.00 0.00 68 1007.7
20260508220333 75 136 5.2 8.7 0.00 0.00 0.00 69 1007.7
20260508215145 75 155 5.2 9.6 0.00 0.00 0.00 67 1007.7
20260508214645 75 187 4.3 9.6 0.00 0.00 0.00 68 1007.8
20260508214144 74 141 3.5 8.7 0.00 0.00 0.00 69 1007.6
20260508213905 74 159 1.7 7.0 0.00 0.00 0.00 72 1007.6
20260508213145 73 136 0.0 1.7 0.00 0.00 0.00 72 1007.6
20260508212645 72 138 0.9 6.1 0.00 0.00 0.00 73 1007.8
20260508212145 72 139 2.6 10.4 0.00 0.00 0.00 73 1007.6
20260508211910 72 297 4.3 13.0 0.00 0.00 0.00 74 1007.8
20260508211144 73 23 5.2 13.0 0.00 0.00 0.00 73 1007.4
20260508210903 73 114 4.3 9.6 0.00 0.00 0.00 71 1007.2
20260508210144 74 141 3.5 8.7 0.00 0.00 0.00 71 1009.1
20260508205643 74 188 2.6 7.0 0.00 0.00 0.00 71 1009.1
20260508205144 74 121 2.6 7.0 0.00 0.00 0.00 69 1008.5
20260508204642 74 181 3.5 7.0 0.00 0.00 0.00 69 1009.4
20260508204135 75 146 3.5 7.8 0.00 0.00 0.00 68 1009.5
20260508203628 75 172 3.5 7.8 0.00 0.00 0.00 68 1009.5
20260508203346 75 189 3.5 7.0 0.00 0.00 0.00 68 1009.4
20260508202625 75 186 2.6 7.0 0.00 0.00 0.00 67 1009.5
20260508202349 75 190 3.5 7.8 0.00 0.00 0.00 67 1009.4
20260508201625 76 198 3.5 7.8 0.00 0.00 0.00 67 1009.4
20260508201125 76 176 4.3 8.7 0.00 0.00 0.00 66 1009.4
20260508200847 76 204 3.5 8.7 0.00 0.00 0.00 65 1009.4
20260508200122 76 163 3.5 7.8 0.00 0.00 0.00 64 1009.4
20260508195625 76 182 3.5 7.8 0.00 0.00 0.00 63 1009.3
20260508195123 77 155 2.6 7.8 0.00 0.00 0.00 64 1009.2
20260508194621 76 147 3.5 8.7 0.00 0.00 0.00 64 1009.3
20260508194343 76 196 4.3 10.4 0.00 0.00 0.00 64 1009.4
20260508193621 77 130 4.3 10.4 0.00 0.00 0.00 63 1009.5
20260508193119 77 142 4.3 8.7 0.00 0.00 0.00 62 1009.4
20260508192619 77 188 4.3 7.8 0.00 0.00 0.00 64 1009.5
20260508192119 76 186 4.3 8.7 0.00 0.00 0.00 63 1009.5
20260508191619 76 172 5.2 9.6 0.00 0.00 0.00 63 1009.7
20260508191117 76 131 5.2 10.4 0.00 0.00 0.00 63 1009.7
20260508190616 76 136 5.2 10.4 0.00 0.00 0.00 62 1009.8
20260508190341 77 160 6.1 11.3 0.00 0.00 0.00 62 1009.8
20260508185617 77 158 5.2 11.3 0.00 0.00 0.00 62 1009.9
20260508185117 77 137 4.3 8.7 0.00 0.00 0.00 62 1009.9
20260508184617 78 146 5.2 10.4 0.00 0.00 0.00 60 1010.0
20260508184116 79 141 5.2 10.4 0.00 0.00 0.00 59 1009.9
20260508183617 79 177 4.3 9.6 0.00 0.00 0.00 60 1010.0
20260508183116 78 134 3.5 9.6 0.00 0.00 0.00 61 1010.0
20260508182617 78 106 2.6 7.0 0.00 0.00 0.00 62 1010.0
20260508182336 78 111 3.5 7.8 0.00 0.00 0.00 62 1010.0
20260508181618 78 140 4.3 7.8 0.00 0.00 0.00 61 1010.2
20260508181118 77 167 3.5 7.0 0.00 0.00 0.00 63 1010.4
20260508180838 77 130 2.6 7.0 0.00 0.00 0.00 62 1010.5
20260508180338 78 128 1.7 6.1 0.00 0.00 0.00 60 1010.6
20260508175616 78 125 1.7 7.0 0.00 0.00 0.00 62 1010.7
20260508175116 77 175 2.6 7.8 0.00 0.00 0.00 62 1010.8
20260508174611 77 140 2.6 8.7 0.00 0.00 0.00 63 1010.8
20260508174106 76 126 3.5 8.7 0.00 0.00 0.00 62 1010.9
20260508173559 76 132 2.6 8.7 0.00 0.00 0.00 63 1010.9
20260508173053 76 138 2.6 8.7 0.00 0.00 0.00 61 1010.9
20260508172547 76 116 1.7 7.0 0.00 0.00 0.00 63 1011.1
20260508172040 75 113 1.7 7.8 0.00 0.00 0.00 64 1011.1
20260508171756 75 137 1.7 7.8 0.00 0.00 0.00 64 1011.1
20260508171029 74 119 1.7 6.1 0.00 0.00 0.00 64 1011.1
20260508170522 74 141 2.6 6.1 0.00 0.00 0.00 65 1011.3
20260508170016 73 197 2.6 8.7 0.00 0.00 0.00 64 1011.4
20260508165512 73 112 3.5 8.7 0.00 0.00 0.00 63 1011.9
20260508165004 74 130 3.5 7.8 0.00 0.00 0.00 62 1012.0
20260508164458 74 129 4.3 8.7 0.00 0.00 0.00 62 1012.1
20260508163952 75 130 4.3 8.7 0.00 0.00 0.00 61 1012.2
20260508163447 74 163 4.3 8.7 0.00 0.00 0.00 62 1012.2
20260508162940 74 152 3.5 7.8 0.00 0.00 0.00 64 1012.2
20260508162434 73 184 4.3 7.8 0.00 0.00 0.00 65 1012.3
20260508161928 72 159 4.3 9.6 0.00 0.00 0.00 65 1012.3
20260508161423 72 127 4.3 9.6 0.00 0.00 0.00 64 1012.2
20260508160916 72 122 4.3 8.7 0.00 0.00 0.00 65 1012.3
20260508160410 72 135 4.3 9.6 0.00 0.00 0.00 65 1012.3
20260508155904 72 178 4.3 9.6 0.00 0.00 0.00 64 1012.5
20260508155400 71 147 2.6 7.8 0.00 0.00 0.00 64 1012.5
20260508154853 71 147 2.6 7.0 0.00 0.00 0.00 66 1012.7
20260508154346 70 125 2.6 6.1 0.00 0.00 0.00 68 1012.8
20260508153840 69 165 2.6 7.0 0.00 0.00 0.00 68 1012.8
20260508153334 69 152 2.6 7.0 0.00 0.00 0.00 68 1012.9
20260508152830 69 130 2.6 6.1 0.00 0.00 0.00 67 1013.0
20260508152321 69 120 2.6 5.2 0.00 0.00 0.00 68 1013.1
20260508151816 69 163 3.5 8.7 0.00 0.00 0.00 67 1013.0
20260508151310 69 150 4.3 8.7 0.00 0.00 0.00 68 1013.1
20260508150806 69 157 4.3 8.7 0.00 0.00 0.00 67 1013.2
20260508150524 69 123 4.3 7.8 0.00 0.00 0.00 67 1013.1
20260508145752 69 145 4.3 9.6 0.00 0.00 0.00 66 1013.0
20260508145504 70 141 4.3 9.6 0.00 0.00 0.00 66 1013.0
20260508144740 69 165 4.3 8.7 0.00 0.00 0.00 67 1013.0
20260508144234 69 126 3.5 7.8 0.00 0.00 0.00 67 1012.9
20260508143729 69 141 4.3 8.7 0.00 0.00 0.00 67 1012.9
20260508143222 68 148 4.3 11.3 0.00 0.00 0.00 67 1013.0
20260508142716 68 136 3.5 11.3 0.00 0.00 0.00 67 1013.0
20260508142210 68 112 3.5 7.8 0.00 0.00 0.00 69 1013.0
20260508141704 68 157 3.5 7.0 0.00 0.00 0.00 69 1013.2
20260508141157 67 148 2.6 7.0 0.00 0.00 0.00 69 1013.3
20260508140652 67 116 2.6 7.8 0.00 0.00 0.00 69 1013.3
20260508140146 67 121 3.5 7.8 0.00 0.00 0.00 71 1013.3
20260508135640 66 142 3.5 7.8 0.00 0.00 0.00 72 1013.4
20260508135135 66 130 3.5 7.8 0.00 0.00 0.00 71 1013.4
20260508134629 65 130 3.5 7.8 0.00 0.00 0.00 73 1013.1
20260508134122 65 132 2.6 7.0 0.00 0.00 0.00 74 1013.2
20260508133616 65 120 0.9 5.2 0.00 0.00 0.00 76 1013.3
20260508133110 64 90 0.0 1.7 0.00 0.00 0.00 78 1013.2
20260508132605 63 327 0.0 0.9 0.00 0.00 0.00 79 1013.2
20260508132058 63 327 0.0 0.9 0.00 0.00 0.00 80 1013.4
20260508131818 62 327 0.0 0.9 0.00 0.00 0.00 81 1013.4
20260508131046 62 326 0.0 0.9 0.00 0.00 0.00 82 1013.7
20260508130541 62 326 0.0 1.7 0.00 0.00 0.00 84 1013.7
20260508130257 61 326 0.0 1.7 0.00 0.00 0.00 84 1013.7
20260508125749 61 252 0.0 1.7 0.00 0.00 0.00 85 1013.7
20260508125256 61 252 0.0 1.7 0.00 0.00 0.00 85 1013.6
20260508124519 61 249 0.0 1.7 0.00 0.00 0.00 85 1013.6
20260508124012 61 248 0.0 1.7 0.00 0.00 0.00 85 1013.4
20260508123506 61 248 0.0 0.0 0.00 0.00 0.00 85 1013.4
20260508123001 61 248 0.0 0.0 0.00 0.00 0.00 84 1013.2
20260508122458 61 248 0.0 0.0 0.00 0.00 0.00 84 1013.2
20260508121957 61 248 0.0 0.0 0.00 0.00 0.00 84 1013.3
20260508121715 61 248 0.0 0.0 0.00 0.00 0.00 84 1013.6
20260508120953 61 248 0.0 0.0 0.00 0.00 0.00 84 1013.5
20260508120450 61 248 0.0 0.0 0.00 0.00 0.00 84 1013.4
20260508115948 61 248 0.0 0.0 0.00 0.00 0.00 84 1013.4
20260508115447 61 248 0.0 0.9 0.00 0.00 0.00 84 1013.5
20260508114944 61 248 0.0 0.9 0.00 0.00 0.00 83 1013.5
20260508114442 61 248 0.0 0.9 0.00 0.00 0.00 83 1013.6
20260508113942 61 248 0.0 0.9 0.00 0.00 0.00 83 1013.4
20260508113703 61 248 0.0 0.0 0.00 0.00 0.00 83 1013.6
20260508112938 61 248 0.0 0.0 0.00 0.00 0.00 83 1013.9
20260508112438 61 248 0.0 0.9 0.00 0.00 0.00 83 1013.9
20260508111936 61 248 0.9 2.6 0.00 0.00 0.00 83 1014.1
20260508111658 61 248 0.9 2.6 0.00 0.00 0.00 83 1014.1
20260508110935 61 246 0.0 2.6 0.00 0.00 0.00 83 1014.1
20260508110432 61 162 0.0 0.9 0.00 0.00 0.00 83 1013.9
20260508105930 61 161 0.0 0.0 0.00 0.00 0.00 83 1013.8
20260508105428 61 161 0.0 1.7 0.00 0.00 0.00 83 1013.4
20260508104925 61 161 0.0 2.6 0.00 0.00 0.00 83 1013.2
20260508104424 61 148 1.7 4.3 0.00 0.00 0.00 83 1013.1
20260508103922 61 143 1.7 4.3 0.00 0.00 0.00 83 1012.8
20260508103422 61 140 1.7 5.2 0.00 0.00 0.00 83 1012.5
20260508102923 61 130 2.6 5.2 0.00 0.00 0.00 83 1012.1
20260508102423 61 132 2.6 3.5 0.00 0.00 0.00 83 1012.2
20260508101922 61 133 0.9 3.5 0.00 0.00 0.00 83 1012.3
20260508101424 61 126 0.9 2.6 0.00 0.00 0.00 82 1012.6
20260508101406 61 126 0.9 2.6 0.00 0.00 0.00 82 1012.6
20260508100639 61 126 0.9 2.6 0.00 0.00 0.00 82 1012.7
20260508095923 61 127 0.9 2.6 0.00 0.00 0.00 82 1012.7
20260508095418 62 127 0.0 1.7 0.00 0.00 0.00 82 1012.5
20260508094919 62 126 0.0 0.9 0.00 0.00 0.00 82 1012.9
20260508094418 62 126 0.0 1.7 0.00 0.00 0.00 82 1012.9
20260508093918 62 126 0.9 2.6 0.00 0.00 0.00 82 1012.8
20260508093420 62 127 0.9 2.6 0.00 0.00 0.00 82 1012.5
20260508093414 62 125 0.9 2.6 0.00 0.00 0.00 82 1012.6
20260508092418 62 123 0.0 1.7 0.00 0.00 0.00 82 1012.8
20260508091918 62 123 0.0 0.9 0.00 0.00 0.00 81 1012.8
20260508091418 62 123 0.9 5.2 0.00 0.00 0.00 81 1012.8
20260508091134 62 123 1.7 5.2 0.00 0.00 0.00 81 1012.7